This demonstration page uses our WeatherBlox Daily Observations layout. Learn more.

Left ArrowRight Arrow

39.08367, -84.50855

Hourly Observations for February 15, 2016

Temp ( °F °C ) Dew Point ( °F °C ) Humidity (%) Winds ( mph kmh ) Pressure ( in mb ) Visibility ( mi km ) Precip ( " mm )
12:53 am 00:53 Cloudy 22 -5.6 18 -7.8 85 85 VRB 5 7 30.14 1021 10 16 N/A
1:15 am 01:15 Cloudy 22 -5.6 19 -7.2 89 89 VRB 5 7 30.12 1020 10 16 N/A
1:53 am 01:53 Cloudy 23 -5 20 -6.7 88 88 SSE 3 6 30.12 1020 10 16 N/A
2:03 am 02:03 Cloudy 23 -5 19 -7 86 86 N N/A 30.12 1020 10 16 N/A
2:53 am 02:53 Cloudy 23 -5 21 -6.1 92 92 N N/A 30.09 1019 10 16 N/A
3:53 am 03:53 Cloudy with Mist and Fog 24 -4.4 23 -5 96 96 N N/A 30.07 1018 4 6 N/A
4:20 am 04:20 Cloudy with Mist and Fog 25 -4 23 -5 93 93 N N/A 30.06 1018 2 3 N/A
4:31 am 04:31 Cloudy with Mist and Fog 24 -4.4 24 -4.4 100 100 N N/A 30.06 1018 2 3 N/A
4:53 am 04:53 Cloudy with Mist and Fog 24 -4.4 24 -4.4 100 100 N N/A 30.05 1018 2 3 N/A
5:00 am 05:00 Cloudy with Mist and Fog 25 -4 25 -4 100 100 N N/A 30.06 1018 2 3 N/A
5:28 am 05:28 Cloudy with Mist and Fog 25 -3.9 24 -4.4 96 96 N N/A 30.06 1018 2 3 N/A
5:41 am 05:41 Cloudy with Mist and Fog 25 -3.9 25 -3.9 100 100 W 3 6 30.06 1018 2 3 N/A
5:53 am 05:53 Cloudy with Mist and Fog 25 -3.9 25 -3.9 100 100 W 3 6 30.06 1018 2 3 N/A
6:05 am 06:05 Cloudy with Mist and Fog 25 -3.9 25 -3.9 100 100 WSW 3 6 30.06 1018 2 3 N/A
6:29 am 06:29 Cloudy with Mist and Fog 26 -3.3 26 -3.3 100 100 N N/A 30.06 1018 3 4 N/A
6:39 am 06:39 Cloudy with Mist and Fog 26 -3.3 26 -3.3 100 100 N N/A 30.06 1018 3 4 N/A
6:53 am 06:53 Cloudy with Mist and Fog 26 -3.3 26 -3.3 100 100 N N/A 30.04 1017 3 4 N/A
7:07 am 07:07 Cloudy with Mist and Fog 26 -3.3 26 -3.3 100 100 N N/A 30.06 1018 2 3 N/A
7:23 am 07:23 Cloudy with Mist and Fog 26 -3.3 26 -3.3 100 100 N N/A 30.06 1018 2 3 N/A
7:53 am 07:53 Cloudy with Mist and Fog 26 -3.3 26 -3.3 100 100 N N/A 30.05 1018 2 3 N/A
8:53 am 08:53 Cloudy with Mist and Fog 28 -2.2 27 -2.8 96 96 undefined N/A 30.04 1017 2 3 N/A
9:53 am 09:53 Cloudy with Mist and Fog 29 -1.7 29 -1.7 100 100 N N/A 30.04 1017 2 3 N/A
10:53 am 10:53 Cloudy with Mist and Fog 31 -0.6 31 -0.6 100 100 N N/A 30.02 1017 2 3 N/A
11:53 am 11:53 Cloudy with Mist and Fog 32 undefined 31 -0.6 96 96 SSE 6 9 29.99 1016 2 3 N/A
12:53 pm 12:53 Cloudy with Mist and Fog 34 1.1 32 undefined 92 92 S 5 7 29.97 1015 2 3 N/A
1:53 pm 13:53 Cloudy with Mist and Fog 35 1.7 33 0.6 93 93 S 6 9 29.93 1014 2 3 N/A
2:53 pm 14:53 Cloudy with Mist and Fog 35 1.7 34 1.1 96 96 S 5 7 29.91 1013 2 3 N/A
3:53 pm 15:53 Cloudy with Mist and Fog 35 1.7 35 1.7 100 100 N N/A 29.90 1012 2 2 N/A
4:14 pm 16:14 Cloudy with Mist and Fog 36 2 36 2 100 100 N N/A 29.91 1013 1 1 N/A
4:35 pm 16:35 Cloudy with Fog 35 1.7 35 1.7 100 100 N N/A 29.91 1013 0 0 N/A
4:53 pm 16:53 Cloudy with Fog 35 1.7 35 1.7 100 100 N N/A 29.88 1012 0 0 N/A
5:53 pm 17:53 Mostly Cloudy with Fog 34 1.1 34 1.1 100 100 NE 3 6 29.87 1011 0 0 N/A
6:10 pm 18:10 Mostly Cloudy with Fog 36 2 36 2 100 100 N 3 6 29.88 1012 0 0 N/A
6:53 pm 18:53 Mostly Cloudy with Fog 34 1.1 34 1.1 100 100 NE 3 6 29.86 1011 0 0 N/A
7:53 pm 19:53 Mostly Cloudy with Fog 34 1.1 34 1.1 100 100 N N/A 29.87 1012 0 0 N/A
8:53 pm 20:53 Mostly Cloudy with Fog 33 0.6 33 0.6 100 100 N 3 6 29.85 1011 0 0 N/A
9:53 pm 21:53 Mostly Cloudy with Light Rain 34 1.1 34 1.1 100 100 N 3 6 29.84 1011 0 0 N/A
10:51 pm 22:51 Mostly Cloudy with Light Rain 34 1 34 1 100 100 N N/A 29.83 1010 0 0 0.01 0.25
10:53 pm 22:53 Mostly Cloudy with Light Rain 33 0.6 33 0.6 100 100 N N/A 29.82 1010 0 0 0.01 0.25
11:53 pm 23:53 Cloudy with Light Rain 33 0.6 33 0.6 100 100 N N/A 29.80 1009 1 1 0.01 0.25

Powered by AerisWeather